User: anonymous   Login
Location: Hancock Field Station
(44.9202°N, 120.4259°W)
Time: 03:20:01
(UTC-07:00)
Language:

Nadezhda 4 Rocket - Orbit

View from above orbital plane
View from above orbital plane
View from above satellite
View from above satellite

Ground track
Ground track

The orbit data is extracted from the following two-line orbital elements,

1 23180U 94041B   16180.55712208 -.00000038 +00000-0 -53284-4 0  9997
2 23180 082.9446 194.1731 0030014 134.1294 336.5079 13.77928610103941
Epoch (UTC): 28 June 2016 13:22:15
Eccentricity: 0.0030014
inclination: 82.9446°
perigee height: 949 km
apogee height: 993 km
right ascension of ascending node: 194.1731°
argument of perigee: 134.1294°
revolutions per day: 13.77928610
mean anomaly at epoch: 336.5079°
orbit number at epoch: 10394

The dashed part of the orbit path shows where the satellite is in the earth's shadow,  

DLR